Orbital Elements at Epoch 2459200.5 (2020-Dec-17.0) TDB
Reference: JPL 12 (heliocentric ecliptic J2000)
Element | Value | Uncertainty (1-sigma) | Units |
e | .1511062540484991 | 4.1558e-08 | |
a | 2.197357193079391 | 9.0882e-09 | au |
q | 1.86532277882664 | 9.1782e-08 | au |
i | 6.636772282102706 | 5.1546e-06 | deg |
node | 164.771694021656 | 3.9926e-05 | deg |
peri | 99.11171398550734 | 4.8587e-05 | deg |
M | 267.8134977749329 | 2.199e-05 | deg |
tp | 2459505.159168769149 (2021-Oct-17.65916877) | 7.2616e-05 | TDB |
period | 1189.732749476967 3.26 | 7.381e-06 2.021e-08 | d yr |
n | .3025889639150171 | 1.8772e-09 | deg/d |
Q | 2.529391607332143 | 1.0461e-08 | au |
|
| | Orbit Determination Parameters
Additional Information
|